time_stamp(utc),avg(mph),gust(mph),direction(deg),12m_air_temp(f),sonic_u(cm/s),sonic_v(cm/s),sonic_w(cm/s),pressure,2m_air_temp(f),pyranometer(W/m^2)
"2019-12-24 00:03:34+00",14.0,15.0,,41.9,-1466,1346,-1014,1017.22,39.9,0
"2019-12-24 00:08:34+00",10.3,12.3,,41.2,-962,797,-586,1017.44,39.8,0
"2019-12-24 00:13:34+00",10.1,12.1,,41,-745,433,-379,1017.43,39.6,0
"2019-12-24 00:18:34+00",9.9,10.9,,41.1,-883,697,-492,1017.35,39.4,0
"2019-12-24 00:23:34+00",11.5,12.5,,41.6,-982,737,-549,1017.26,39.3,0
"2019-12-24 00:28:34+00",11.5,13.5,,41.8,-1209,1136,-757,1017.16,39.5,0
"2019-12-24 00:33:34+00",11.4,13.4,,41.7,-1212,1140,-753,1017.1,39.6,0
"2019-12-24 00:38:34+00",12.4,14.4,,41.6,-1479,1511,-973,1017.01,39.6,0
"2019-12-24 00:43:34+00",11.4,13.4,,41.4,-1227,1141,-747,1017.05,39.6,0
"2019-12-24 00:48:34+00",9.8,10.8,,41,-905,682,-447,1017.07,39.4,0
"2019-12-24 00:53:34+00",10.0,11.0,,40.7,-1030,889,-563,1017,39.2,0
"2019-12-24 00:58:34+00",10.5,11.5,,40.5,-839,586,-382,1017.01,38.8,0
"2019-12-24 01:03:34+00",10.5,11.5,,40.2,-901,672,-478,1016.75,38.6,0
"2019-12-24 01:08:34+00",9.4,10.4,,39.8,-642,294,-254,1016.74,38.3,0
"2019-12-24 01:13:34+00",8.5,9.5,,39.5,-438,-7,-88,1016.67,38.1,0
"2019-12-24 01:18:34+00",7.7,8.7,,39.3,-410,22,-87,1016.59,37.8,0
"2019-12-24 01:23:34+00",7.7,8.7,,39.2,-340,-82,-10,1016.7,37.5,0
"2019-12-24 01:28:34+00",7.8,8.8,,39.1,-371,39,-25,1016.77,37.3,0
"2019-12-24 01:33:34+00",8.0,9.0,,39.3,-406,84,-74,1016.54,37,0
"2019-12-24 01:38:34+00",8.9,8.9,,39.3,-444,75,-57,1016.59,36.7,0
"2019-12-24 01:43:34+00",7.1,7.1,,39.2,-337,21,-28,1016.46,36.5,0
"2019-12-24 01:48:34+00",7.1,7.1,,39.1,-326,14,-7,1016.41,36.2,0
"2019-12-24 01:53:34+00",7.6,7.6,,38.7,-341,14,-2,1016.28,35.8,0
"2019-12-24 01:58:34+00",8.5,8.5,,39,-385,36,-3,1016.1,35.4,0
"2019-12-24 02:03:34+00",8.3,9.3,,39.4,-384,40,-12,1016.16,35,0
"2019-12-24 02:08:34+00",8.7,8.7,,39.9,-397,50,1,1016.05,34.8,0
"2019-12-24 02:13:34+00",9.7,10.7,,40.6,-454,89,-8,1016.02,34.6,0
"2019-12-24 02:18:34+00",10.2,11.2,,40.8,-496,111,-39,1016.11,34.5,0
"2019-12-24 02:23:34+00",9.9,10.9,,40.4,-450,36,-7,1016.27,34.5,0
"2019-12-24 02:28:34+00",10.3,10.3,,40.5,-475,20,-20,1016.26,34.9,0
"2019-12-24 02:33:34+00",10.0,11.0,,40.5,-490,49,-67,1016.21,35.3,0
"2019-12-24 02:38:34+00",10.4,11.4,,40.2,-490,24,-72,1016.1,35.5,0
"2019-12-24 02:43:34+00",11.3,11.3,,39.8,-502,-29,-43,1016.21,35.6,0
"2019-12-24 02:48:34+00",11.5,11.5,,39.8,-545,45,-91,1016.17,35.6,0
"2019-12-24 02:53:34+00",11.6,12.6,,39.8,-621,172,-165,1016.2,35.5,0
"2019-12-24 02:58:34+00",11.0,12.0,,39.6,-539,50,-86,1016.26,35.4,0
"2019-12-24 03:03:34+00",11.1,12.1,,39.7,-511,-24,-30,1016.34,35.3,0
"2019-12-24 03:08:34+00",10.4,10.4,,38.7,-466,-39,-25,1016.27,35.2,0
"2019-12-24 03:13:34+00",10.3,10.3,,38.2,-461,-39,-6,1016.3,35.1,0
"2019-12-24 03:18:34+00",10.4,11.4,,38.5,-490,53,-19,1016.36,35,0
"2019-12-24 03:23:34+00",9.3,10.3,,38.6,-421,-4,-15,1016.37,35,0
"2019-12-24 03:28:34+00",9.5,10.5,,38.4,-421,0,11,1016.49,34.9,0
"2019-12-24 03:33:34+00",10.7,10.7,,38.5,-468,-51,4,1016.27,35,0
"2019-12-24 03:38:34+00",9.9,9.9,,38.7,-441,16,5,1016.45,35,0
"2019-12-24 03:43:34+00",9.3,10.3,,38.4,-410,-24,-4,1016.29,34.9,0
"2019-12-24 03:48:34+00",10.3,10.3,,39.1,-470,-4,-10,1016.17,34.8,0
"2019-12-24 03:53:34+00",10.2,11.2,,39.2,-470,38,3,1016.26,34.9,0
"2019-12-24 03:58:34+00",9.9,9.9,,38.8,-453,52,-5,1016.3,34.9,0
"2019-12-24 04:03:34+00",9.1,9.1,,38.7,-417,29,-14,1016.29,34.8,0
"2019-12-24 04:08:34+00",10.1,11.1,,39.3,-516,90,-97,1016.22,34.7,0
"2019-12-24 04:13:34+00",10.2,10.2,,39.7,-502,57,-59,1016.21,34.5,0
"2019-12-24 04:18:34+00",10.4,11.4,,39.8,-467,28,7,1016.17,34.4,0
"2019-12-24 04:23:34+00",10.2,11.2,,39.6,-464,36,18,1016.2,34.6,0
"2019-12-24 04:28:34+00",9.5,9.5,,39.3,-433,55,16,1016.08,34.8,0
"2019-12-24 04:33:34+00",9.5,9.5,,38.6,-432,58,19,1016.07,34.7,0
"2019-12-24 04:38:34+00",11.4,12.4,,39,-524,111,10,1016,34.6,0
"2019-12-24 04:43:34+00",11.7,12.7,,38.8,-542,147,-11,1015.95,34.9,0
"2019-12-24 04:48:34+00",12.5,13.5,,38.7,-609,215,-43,1015.94,35.3,0
"2019-12-24 04:53:34+00",11.4,12.4,,38.6,-509,96,9,1015.75,35.6,0
"2019-12-24 04:58:34+00",11.6,12.6,,38.7,-531,162,-4,1015.93,35.8,0
"2019-12-24 05:03:34+00",11.6,12.6,,38.9,-533,120,-3,1015.85,36,0
"2019-12-24 05:08:34+00",10.7,11.7,,38.6,-482,116,8,1015.82,36.1,0
"2019-12-24 05:13:34+00",10.9,11.9,,38.2,-484,108,9,1015.78,36.1,0
"2019-12-24 05:18:34+00",10.5,11.5,,38.3,-466,144,10,1015.75,35.9,0
"2019-12-24 05:23:34+00",9.7,10.7,,38.4,-428,142,10,1015.66,35.7,0
"2019-12-24 05:28:34+00",9.2,9.2,,38.2,-406,152,7,1015.74,35.5,0
"2019-12-24 05:33:34+00",8.9,8.9,,37.8,-400,121,6,1015.62,35.2,0
"2019-12-24 05:38:34+00",9.6,9.6,,37.4,-418,147,12,1015.73,35.1,0
"2019-12-24 05:43:34+00",9.8,9.8,,37.2,-437,127,1,1015.65,34.9,0
"2019-12-24 05:48:34+00",10.1,10.1,,37.4,-446,154,6,1015.71,34.8,0
"2019-12-24 05:53:34+00",10.2,11.2,,37.2,-446,143,19,1015.79,34.7,0
"2019-12-24 05:58:34+00",8.8,9.8,,37.5,-396,134,-2,1015.69,34.8,0
"2019-12-24 06:03:34+00",9.3,10.3,,37.3,-401,191,6,1015.75,34.8,0
"2019-12-24 06:08:34+00",10.6,11.6,,37.9,-450,251,1,1015.78,34.9,0
"2019-12-24 06:13:34+00",11.8,12.8,,38.9,-605,461,-126,1015.68,35.3,0
"2019-12-24 06:18:34+00",11.9,12.9,,39.1,-560,381,-75,1015.66,35.8,0
"2019-12-24 06:23:34+00",11.1,12.1,,39.3,-492,327,-36,1015.7,36.2,0
"2019-12-24 06:28:34+00",10.8,11.8,,39.3,-466,300,-13,1015.68,36.5,0
"2019-12-24 06:33:34+00",10.6,12.6,,38.8,-463,358,-47,1015.68,36.6,0
"2019-12-24 06:38:34+00",10.6,12.6,,38.2,-499,417,-88,1015.72,36.5,0
"2019-12-24 06:43:34+00",10.9,11.9,,37.7,-532,457,-111,1015.66,36.3,0
"2019-12-24 06:48:34+00",11.2,12.2,,37.6,-612,596,-183,1015.6,36.1,0
"2019-12-24 06:53:34+00",12.2,13.2,,37.9,-808,864,-337,1015.67,36,0
"2019-12-24 06:58:34+00",12.2,13.2,,38,-858,959,-370,1015.65,36.1,0
"2019-12-24 07:03:34+00",12.3,13.3,,37.8,-779,853,-323,1015.6,36.1,0
"2019-12-24 07:08:34+00",12.0,13.0,,37.8,-875,1025,-409,1015.52,36.2,0
"2019-12-24 07:13:34+00",12.0,13.0,,37.7,-815,958,-374,1015.51,36.2,0
"2019-12-24 07:18:34+00",12.5,13.5,,37.8,-858,1040,-400,1015.67,36.2,0
"2019-12-24 07:23:34+00",12.7,14.7,,37.6,-887,1056,-391,1015.69,36.2,0
"2019-12-24 07:28:34+00",12.7,13.7,,37.9,-872,1025,-375,1015.63,36.2,0
"2019-12-24 07:33:34+00",12.1,13.1,,37.8,-690,750,-264,1015.59,36.2,0
"2019-12-24 07:38:34+00",11.1,12.1,,37.7,-617,655,-219,1015.56,36.2,0
"2019-12-24 07:43:34+00",10.8,11.8,,37.8,-582,609,-180,1015.67,36.2,0
"2019-12-24 07:48:34+00",10.1,11.1,,37.7,-467,432,-95,1015.69,36.1,0
"2019-12-24 07:53:34+00",10.5,12.5,,37.6,-508,508,-134,1015.72,36,0
"2019-12-24 07:58:34+00",9.9,10.9,,37.7,-424,377,-53,1015.73,36,0
"2019-12-24 08:03:34+00",9.7,10.7,,37.7,-466,530,-139,1015.77,36,0
"2019-12-24 08:08:34+00",10.0,11.0,,37.7,-442,486,-108,1015.81,36,0
"2019-12-24 08:13:34+00",9.8,10.8,,37.9,-433,410,-75,1015.73,35.9,0
"2019-12-24 08:18:34+00",10.0,11.0,,38,-462,428,-88,1015.8,35.9,0
"2019-12-24 08:23:34+00",9.0,10.0,,37.9,-408,380,-77,1015.77,35.9,0
"2019-12-24 08:28:34+00",7.9,8.9,,37.6,-302,296,-24,1015.63,35.8,0
"2019-12-24 08:33:34+00",8.3,9.3,,37.5,-306,343,-34,1015.6,35.6,0
"2019-12-24 08:38:34+00",8.1,9.1,,37.4,-195,268,21,1015.76,35.4,0
"2019-12-24 08:43:34+00",7.7,7.7,,37.5,-129,236,45,1015.82,35.2,0
"2019-12-24 08:48:34+00",7.9,8.9,,37.6,-290,454,-94,1015.9,34.8,0
"2019-12-24 08:53:34+00",8.6,8.6,,37.5,-474,812,-283,1015.83,34.5,0
"2019-12-24 08:58:34+00",10.0,10.0,,37.6,-647,1049,-376,1015.77,34.3,0
"2019-12-24 09:03:34+00",9.9,10.9,,37.9,-570,896,-322,1015.85,34.2,0
"2019-12-24 09:08:34+00",8.9,8.9,,37.6,-476,717,-231,1015.91,34.2,0
"2019-12-24 09:13:34+00",7.5,7.5,,37.5,-310,378,-73,1016,34.4,0
"2019-12-24 09:18:34+00",7.5,7.5,,37.5,-301,470,-113,1015.94,34.5,0
"2019-12-24 09:23:34+00",7.4,7.4,,37.7,-329,562,-158,1016.08,34.5,0
"2019-12-24 09:28:34+00",7.3,7.3,,37.7,-289,483,-116,1016.05,34.3,0
"2019-12-24 09:33:34+00",6.8,6.8,,37.7,-250,372,-73,1016.11,34.1,0
"2019-12-24 09:38:34+00",7.1,7.1,,37.8,-289,410,-90,1016.18,34.1,0
"2019-12-24 09:43:34+00",7.4,7.4,,38,-258,409,-72,1016.23,34.1,0
"2019-12-24 09:48:34+00",6.6,6.6,,38.2,-199,365,-61,1016.17,34.1,0
"2019-12-24 09:53:34+00",6.1,6.1,,38.2,-207,393,-92,1016.32,34.1,0
"2019-12-24 09:58:34+00",5.6,6.6,,37.8,-161,289,-45,1016.26,33.9,0
"2019-12-24 10:03:34+00",5.3,5.3,,37.5,-116,263,-31,1016.2,33.8,0
"2019-12-24 10:08:34+00",5.8,5.8,,37.6,-178,439,-115,1016.2,33.8,0
"2019-12-24 10:13:34+00",5.8,6.8,,37.8,-166,443,-126,1016.2,33.8,0
"2019-12-24 10:18:34+00",6.5,7.5,,37.9,-234,621,-208,1016.29,33.8,0
"2019-12-24 10:23:34+00",6.5,7.5,,37.8,-263,662,-224,1016.46,33.7,0
"2019-12-24 10:28:34+00",6.6,6.6,,37.7,-238,612,-186,1016.49,33.7,0
"2019-12-24 10:33:34+00",5.6,6.6,,37.6,-183,479,-140,1016.6,33.7,0
"2019-12-24 10:38:34+00",5.7,6.7,,37.5,-224,602,-200,1016.63,33.7,0
"2019-12-24 10:43:34+00",8.3,10.3,,37.6,-528,1215,-472,1016.7,33.8,0
"2019-12-24 10:48:34+00",11.2,12.2,,37.8,-1105,2339,-1013,1016.73,33.7,0
"2019-12-24 10:53:34+00",12.9,13.9,,38,-854,1957,-763,1016.82,33.9,0
"2019-12-24 10:58:34+00",13.4,14.4,,38.4,-787,1848,-706,1016.94,34.3,0
"2019-12-24 11:03:34+00",11.1,12.1,,38.3,-641,1480,-551,1016.81,34.6,0
"2019-12-24 11:08:34+00",12.7,14.7,,38.1,-714,1651,-592,1016.96,34.7,0
"2019-12-24 11:13:34+00",12.5,14.5,,38.5,-678,1582,-573,1017.06,34.9,0
"2019-12-24 11:18:34+00",15.5,18.5,,38.7,-219,919,-138,1017.09,35.4,0
"2019-12-24 11:23:34+00",14.5,15.5,,38.8,-940,2170,-840,1017.15,35.8,0
"2019-12-24 11:28:34+00",10.4,12.4,,38.5,-962,2105,-909,1017.38,35.8,0
"2019-12-24 11:33:34+00",11.6,12.6,,38,-1153,2442,-1067,1017.5,35.6,0
"2019-12-24 11:38:34+00",9.4,10.4,,37.6,-969,2042,-893,1017.5,35.4,0
"2019-12-24 11:43:34+00",12.5,13.5,,37.6,-1631,3391,-1566,1017.72,35.1,0
"2019-12-24 11:48:34+00",13.2,14.2,,38,-1286,2950,-1308,1017.79,35,0
"2019-12-24 11:53:34+00",10.8,12.8,,38.2,-1044,2301,-1004,1017.77,34.9,0
"2019-12-24 11:58:34+00",13.4,14.4,,37.6,-1627,3539,-1612,1017.75,34.8,0
"2019-12-24 12:03:34+00",12.8,13.8,,38.3,-966,2398,-1020,1017.9,35.1,0
"2019-12-24 12:08:34+00",12.4,13.4,,38.1,-1332,2828,-1266,1017.94,35.3,0
"2019-12-24 12:13:34+00",13.5,14.5,,37.9,-1497,3143,-1400,1017.89,35.2,0
"2019-12-24 12:18:34+00",13.7,15.7,,38.2,-1304,2865,-1236,1017.95,35.4,0
"2019-12-24 12:23:34+00",14.4,16.4,,38.3,-1023,2359,-956,1017.91,35.6,0
"2019-12-24 12:28:34+00",14.7,16.7,,38.5,-661,1756,-623,1017.98,35.9,0
"2019-12-24 12:33:34+00",14.3,18.3,,38.7,-1022,2359,-938,1017.97,36.3,0
"2019-12-24 12:38:34+00",13.8,15.8,,38.9,-623,1623,-575,1018.11,36.7,0
"2019-12-24 12:43:34+00",14.0,17.0,,38.9,-695,1756,-632,1018.02,37.1,0
"2019-12-24 12:48:34+00",13.6,16.6,,39,-679,1724,-640,1018.27,37.5,0
"2019-12-24 12:53:34+00",12.5,14.5,,39.2,-795,1866,-729,1018.4,38,0
"2019-12-24 12:58:34+00",11.1,12.1,,39.2,-446,1202,-393,1018.37,38.5,0
"2019-12-24 13:03:34+00",10.3,11.3,,39.3,-335,972,-305,1018.35,38.9,0
"2019-12-24 13:08:34+00",10.3,11.3,,39.4,-263,848,-257,1018.31,39.4,0
"2019-12-24 13:13:34+00",9.6,12.6,,39.4,-159,697,-177,1018.37,39.7,0
"2019-12-24 13:18:34+00",11.3,12.3,,39.8,-167,799,-183,1018.3,40,0
"2019-12-24 13:23:34+00",11.0,13.0,,40.2,-92,698,-137,1018.34,40.4,2.2
"2019-12-24 13:28:34+00",12.2,14.2,,40.5,-222,854,-204,1018.48,41,13.9
"2019-12-24 13:33:34+00",11.0,13.0,,40.6,-367,1115,-375,1018.51,41.5,25.3
"2019-12-24 13:38:34+00",11.8,14.8,,40.9,-478,1298,-439,1018.48,41.8,34.5
"2019-12-24 13:43:34+00",12.8,14.8,,41.1,-249,1048,-316,1018.58,42.2,28.5
"2019-12-24 13:48:34+00",12.5,14.5,,41.4,-301,1129,-344,1018.5,42.4,32.6
"2019-12-24 13:53:34+00",11.2,12.2,,41.6,-652,1690,-654,1018.7,42.6,31.1
"2019-12-24 13:58:34+00",13.7,16.7,,41.8,-170,1026,-215,1018.73,42.8,60.2
"2019-12-24 14:03:34+00",13.1,15.1,,42.3,-589,1808,-709,1018.74,43.2,77.6
"2019-12-24 14:08:34+00",14.5,17.5,,42.7,-241,1285,-372,1018.58,43.7,82.8
"2019-12-24 14:13:34+00",15.1,17.1,,42.9,-138,1218,-354,1018.81,44,88.3
"2019-12-24 14:18:34+00",12.3,16.3,,43,-480,1617,-619,1018.83,44.2,77.9
"2019-12-24 14:23:34+00",15.1,17.1,,42.9,77,836,-115,1018.95,43.9,52.6
"2019-12-24 14:28:34+00",12.0,14.0,,43,-692,1934,-789,1019.04,43.9,99.4
"2019-12-24 14:33:34+00",12.7,16.7,,43.3,-331,1393,-477,1019.18,44.4,70.2
"2019-12-24 14:38:34+00",16.3,18.3,,43.5,260,784,-109,1019.02,44.6,100.5
"2019-12-24 14:43:34+00",11.8,15.8,,43.7,-29,886,-242,1018.98,45,131.7
"2019-12-24 14:48:34+00",12.9,14.9,,43.8,-402,1706,-696,1018.95,45.2,104.2
"2019-12-24 14:53:34+00",17.4,19.4,,43.7,1306,-836,793,1018.94,45.1,94.5
"2019-12-24 14:58:34+00",14.6,18.6,,43.8,317,536,-2,1018.92,45.1,126.7
"2019-12-24 15:03:34+00",18.4,23.4,,44.1,1330,-823,827,1019,45.4,138.8
"2019-12-24 15:08:34+00",21.8,25.8,,44,1925,-1730,1331,1019.02,45.3,133.4
"2019-12-24 15:13:34+00",22.3,27.3,,44,2892,-3329,2261,1018.99,45.4,152.9
"2019-12-24 15:18:34+00",22.4,27.4,,44,2228,-2279,1677,1018.96,45.3,148.4
"2019-12-24 15:28:34+00",23.7,26.7,,44.1,2816,-3164,2146,1019.02,45.2,143.5
"2019-12-24 15:38:34+00",24.0,30.0,,43.8,3067,-3542,2318,1018.99,45.2,143.8
"2019-12-24 15:43:34+00",22.7,25.7,,43.8,2465,-2642,1873,1018.93,45.1,146.1
"2019-12-24 15:48:34+00",21.5,24.5,,43.8,2857,-3336,2268,1018.68,45.2,179.1
"2019-12-24 15:53:34+00",22.1,27.1,,43.5,2809,-3143,2166,1018.88,44.8,153.5
"2019-12-24 16:03:34+00",21.9,26.9,,43.6,2403,-2603,1827,1018.68,44.7,124.6
"2019-12-24 16:08:34+00",20.9,24.9,,43.6,943,-216,517,1018.75,44.6,94.8
"2019-12-24 16:13:34+00",22.7,25.7,,43.5,2488,-2656,1829,1018.73,44.4,103.6
"2019-12-24 16:28:34+00",20.1,22.1,,43.2,2686,-2965,1997,1018.7,44.1,70.7
"2019-12-24 16:33:34+00",20.3,23.3,,43.2,2184,-2273,1627,1018.56,44.1,56.1
"2019-12-24 16:38:34+00",19.5,23.5,,43.3,2282,-2414,1685,1018.48,44.4,158.5
"2019-12-24 16:43:34+00",20.2,23.2,,43.1,2567,-2816,1916,1018.49,44.5,181.2
"2019-12-24 16:48:34+00",18.5,19.5,,43.5,2089,-2096,1507,1018.31,45,174.4
"2019-12-24 16:53:34+00",21.0,25.0,,43.9,2410,-2614,1777,1018.29,45.3,185.5
"2019-12-24 16:58:34+00",20.2,25.2,,43.9,1884,-1722,1292,1018.22,45.5,177.4
"2019-12-24 17:08:34+00",20.8,23.8,,43.9,1994,-1867,1498,1018.43,45.5,186.6
"2019-12-24 17:18:34+00",19.8,23.8,,44.6,1619,-1246,1055,1018.18,45.9,180.1
"2019-12-24 17:23:34+00",20.2,24.2,,44.3,1151,-535,670,1018.19,45.9,179.3
"2019-12-24 17:28:34+00",21.0,26.0,,44.3,2727,-3028,2023,1018.13,45.9,177.2
"2019-12-24 17:33:34+00",18.4,22.4,,44.4,1240,-668,715,1018.1,45.9,176
"2019-12-24 17:38:34+00",19.0,22.0,,44.3,927,1,354,1018.08,45.9,172.1
"2019-12-24 17:48:34+00",19.0,22.0,,44.2,168,1205,-315,1018.13,45.6,167.1
"2019-12-24 17:58:34+00",22.6,26.6,,44,1525,-974,928,1018.1,45.5,161.9
"2019-12-24 18:03:34+00",22.4,25.4,,43.9,1544,-948,901,1018.09,45.3,159.1
"2019-12-24 18:08:34+00",23.4,25.4,,43.9,2861,-3212,2165,1018.17,45.3,155.2
"2019-12-24 18:18:34+00",17.3,20.3,,44.3,1100,-393,511,1018.19,45.6,146.6
"2019-12-24 18:23:34+00",18.6,21.6,,44.2,1701,-1374,1092,1018.02,45.6,142.8
"2019-12-24 18:28:34+00",16.6,18.6,,44.4,505,545,-1,1018.07,45.8,139.7
"2019-12-24 18:33:34+00",16.5,19.5,,44.7,-369,2046,-813,1018.07,45.9,135.2
"2019-12-24 18:38:34+00",18.0,20.0,,44.6,329,957,-216,1018.04,45.8,131.4
"2019-12-24 18:43:34+00",19.5,21.5,,44.8,724,382,146,1018.12,45.9,125.8
"2019-12-24 18:48:34+00",15.0,18.0,,45,-1533,3811,-1826,1018.2,46.2,119.8
"2019-12-24 18:53:34+00",15.7,17.7,,45,-1773,4420,-2164,1018.12,46.3,114
"2019-12-24 18:58:34+00",14.9,16.9,,45.3,-1666,4178,-2052,1018.01,46.5,109.3
"2019-12-24 19:03:34+00",14.9,16.9,,45.1,-1689,4138,-2031,1018.14,46.5,101.5
"2019-12-24 19:08:34+00",14.4,15.4,,45,-1751,4088,-2023,1018.19,46.3,96.1
"2019-12-24 19:13:34+00",12.7,14.7,,45.4,-1149,3042,-1453,1018.25,46.5,89.1
"2019-12-24 19:23:34+00",14.9,17.9,,45.6,-948,3005,-1397,1018.01,46.8,74.4
"2019-12-24 19:28:34+00",13.6,16.6,,45.5,-1160,2995,-1470,1018.16,46.7,68.6
"2019-12-24 19:33:34+00",15.3,17.3,,45.6,-2034,4574,-2284,1018.04,46.8,60.1
"2019-12-24 20:03:34+00",19.0,22.0,,44.9,-1427,4164,-1962,1018.57,45.4,15.5
"2019-12-24 20:13:34+00",15.4,17.4,,44.6,-1965,4562,-2231,1018.76,44.9,2.7
"2019-12-24 20:18:34+00",15.3,17.3,,44.4,-1847,4291,-2098,1018.81,44.7,0.3
"2019-12-24 20:33:34+00",13.2,14.2,,44.2,-1606,3798,-1849,1018.71,44.1,0
"2019-12-24 20:48:34+00",13.3,15.3,,43.7,-1647,3808,-1867,1019.2,43.6,0
"2019-12-24 20:53:34+00",13.3,14.3,,43.7,-1731,4069,-2001,1019.39,43.5,0
"2019-12-24 20:58:34+00",14.3,16.3,,43.7,-1832,4299,-2129,1019.37,43.4,0
"2019-12-24 21:03:34+00",13.4,14.4,,43.6,-1796,4101,-2037,1019.35,43.2,0
"2019-12-24 21:08:34+00",12.8,14.8,,43.5,-1692,3947,-1955,1019.39,42.9,0
"2019-12-24 21:13:34+00",11.8,13.8,,43.2,-1131,2876,-1371,1019.61,42.6,0
"2019-12-24 21:18:34+00",12.5,13.5,,42.9,-1254,3168,-1532,1019.8,42.1,0
"2019-12-24 21:23:34+00",12.3,14.3,,42.6,-1104,2885,-1369,1019.9,41.7,0
"2019-12-24 21:28:34+00",11.3,12.3,,42.3,-853,2363,-1101,1020.09,41.3,0
"2019-12-24 21:33:34+00",11.0,12.0,,41.9,-650,1970,-883,1020.17,40.8,0
"2019-12-24 21:38:34+00",10.4,11.4,,41.7,-991,2582,-1242,1020.15,40.4,0
"2019-12-24 21:43:34+00",10.4,11.4,,41.5,-1501,3462,-1732,1020.04,40.1,0
"2019-12-24 21:48:34+00",10.8,11.8,,41.3,-1883,4165,-2126,1020.05,39.9,0
"2019-12-24 21:53:34+00",10.5,11.5,,41.1,-1813,4102,-2091,1020.09,39.6,0
"2019-12-24 21:58:34+00",9.0,10.0,,41.1,-758,2089,-1028,1020.07,39.2,0
"2019-12-24 22:03:34+00",8.3,9.3,,40.9,-992,2393,-1177,1020.25,38.9,0
"2019-12-24 22:08:34+00",8.7,9.7,,40.7,-811,2184,-1070,1020.34,38.6,0
"2019-12-24 22:13:34+00",8.9,8.9,,40.8,-1125,2679,-1326,1020.4,38.3,0
"2019-12-24 22:18:34+00",8.3,9.3,,40.6,-943,2313,-1134,1020.63,38.1,0
"2019-12-24 22:23:34+00",8.5,9.5,,40.6,-813,2032,-971,1020.6,37.7,0
"2019-12-24 22:28:34+00",9.9,9.9,,40.6,-1109,2763,-1353,1020.77,37.4,0
"2019-12-24 22:33:34+00",10.6,11.6,,40.5,-1167,2810,-1368,1020.75,37.1,0
"2019-12-24 22:38:34+00",10.1,11.1,,40.2,-653,1900,-871,1021.01,37,0
"2019-12-24 22:43:34+00",10.1,11.1,,40.1,-556,1726,-749,1020.92,37,0
"2019-12-24 22:48:34+00",10.5,11.5,,40.1,-630,1873,-830,1021.08,37,0
"2019-12-24 22:53:34+00",11.0,12.0,,40,-636,1925,-824,1021.11,36.8,0
"2019-12-24 22:58:34+00",11.0,12.0,,40,-1027,2605,-1202,1021.19,36.7,0
"2019-12-24 23:03:34+00",10.3,10.3,,39.8,-465,1561,-635,1021.22,36.5,0
"2019-12-24 23:08:34+00",10.1,11.1,,39.7,-237,1141,-413,1021.14,36.4,0
"2019-12-24 23:13:34+00",11.0,12.0,,39.6,-207,1145,-398,1021.31,36.4,0
"2019-12-24 23:18:34+00",10.5,11.5,,39.6,-366,1415,-550,1021.3,36.5,0
"2019-12-24 23:23:34+00",9.5,10.5,,39.7,-352,1322,-523,1021.34,36.6,0
"2019-12-24 23:28:34+00",8.5,9.5,,39.6,-71,659,-182,1021.28,36.6,0
"2019-12-24 23:33:34+00",7.6,7.6,,39.5,-213,936,-357,1021.31,36.7,0
"2019-12-24 23:38:34+00",7.5,8.5,,39.6,-228,966,-384,1021.3,36.6,0
"2019-12-24 23:43:34+00",5.8,6.8,,39.5,94,339,-95,1021.49,36.4,0
"2019-12-24 23:48:34+00",7.2,8.2,,39.4,-189,875,-329,1021.28,36.2,0
"2019-12-24 23:53:34+00",7.0,8.0,,39.3,-160,831,-341,1021.38,36.1,0
"2019-12-24 23:58:34+00",7.0,7.0,,39.2,-162,893,-371,1021.56,35.7,0
